TimePDT,TemperatureF,Dew PointF,Humidity,Sea Level PressureIn,VisibilityMPH,Wind Direction,Wind SpeedMPH,Gust SpeedMPH,PrecipitationIn,Events,Conditions,WindDirDegrees,DateUTC
12:53 AM,33.1,30.0,89,30.27,10.0,East,4.6,-,N/A,,Clear,100,2013-03-11 07:53:00
1:53 AM,30.0,27.0,88,30.29,10.0,Calm,Calm,-,N/A,,Clear,0,2013-03-11 08:53:00
2:53 AM,30.0,27.0,88,30.30,10.0,North,4.6,-,N/A,,Clear,360,2013-03-11 09:53:00
3:53 AM,30.0,28.0,92,30.29,10.0,Calm,Calm,-,N/A,,Clear,0,2013-03-11 10:53:00
4:53 AM,33.1,30.0,89,30.30,10.0,Calm,Calm,-,N/A,,Clear,0,2013-03-11 11:53:00
5:53 AM,34.0,30.0,85,30.30,10.0,SSW,4.6,-,N/A,,Clear,210,2013-03-11 12:53:00
6:53 AM,33.1,28.9,85,30.32,10.0,ESE,4.6,-,N/A,,Clear,110,2013-03-11 13:53:00
7:53 AM,33.1,28.9,85,30.33,10.0,North,8.1,-,N/A,,Clear,360,2013-03-11 14:53:00
8:53 AM,37.0,30.0,76,30.35,10.0,Calm,Calm,-,N/A,,Clear,0,2013-03-11 15:53:00
9:53 AM,39.0,30.9,73,30.37,10.0,North,3.5,-,N/A,,Clear,10,2013-03-11 16:53:00
10:53 AM,45.0,30.0,56,30.37,10.0,North,6.9,-,N/A,,Clear,10,2013-03-11 17:53:00
11:53 AM,48.0,27.0,44,30.36,10.0,NNE,5.8,-,N/A,,Clear,20,2013-03-11 18:53:00
12:53 PM,48.0,27.0,44,30.35,10.0,NNE,8.1,-,N/A,,Clear,30,2013-03-11 19:53:00
1:53 PM,50.0,26.1,39,30.33,10.0,Calm,Calm,-,N/A,,Clear,0,2013-03-11 20:53:00
2:53 PM,51.1,23.0,33,30.30,10.0,Variable,4.6,-,N/A,,Clear,0,2013-03-11 21:53:00
3:53 PM,51.1,21.0,31,30.29,10.0,East,4.6,-,N/A,,Clear,90,2013-03-11 22:53:00
4:53 PM,51.1,21.9,32,30.28,10.0,Calm,Calm,-,N/A,,Clear,0,2013-03-11 23:53:00
5:53 PM,50.0,25.0,38,30.26,10.0,ESE,3.5,-,N/A,,Partly Cloudy,120,2013-03-12 00:53:00
6:53 PM,48.0,30.0,50,30.25,10.0,Calm,Calm,-,N/A,,Overcast,0,2013-03-12 01:53:00
7:53 PM,46.0,28.0,50,30.25,10.0,Calm,Calm,-,N/A,,Overcast,0,2013-03-12 02:53:00
8:53 PM,45.0,30.9,58,30.24,10.0,Calm,Calm,-,N/A,,Overcast,0,2013-03-12 03:53:00
9:53 PM,43.0,28.9,58,30.23,10.0,Calm,Calm,-,N/A,,Overcast,0,2013-03-12 04:53:00
10:53 PM,42.1,30.9,65,30.22,10.0,Calm,Calm,-,N/A,,Overcast,0,2013-03-12 05:53:00
11:53 PM,42.1,32.0,67,30.20,10.0,North,3.5,-,N/A,,Overcast,10,2013-03-12 06:53:00